Location: Hope
(40.9110°N, 74.9680°W)
Time: 11:47:43
(UTC-04:00)

Envisat - Visible Passes

Search period start: 21 July 2018 00:00
Search period end: 31 July 2018 00:00
Orbit: 764 x 766 km, 98.2° (Epoch: 21 July)

Date Brightness Start Highest point End Pass type
(mag) Time Alt. Az. Time Alt. Az. Time Alt. Az.
22 Jul 5.7 21:36:02 10° WSW 21:38:41 14° W 21:41:21 10° WNW visible
23 Jul 4.8 20:57:08 10° SSW 21:01:38 32° W 21:06:09 10° NNW visible
25 Jul 5.6 21:23:58 10° SW 21:27:25 18° W 21:30:51 10° NW visible
26 Jul 4.4 20:45:39 10° SSW 20:50:24 40° W 20:55:11 10° NNW visible
28 Jul 5.3 21:12:10 10° SW 21:16:08 23° W 21:20:08 10° NW visible
30 Jul 5.8 21:39:46 10° WSW 21:41:59 13° W 21:44:12 10° WNW visible
